User: anonymous   Login
Location: Champs
(48.8539°N, 2.6040°E)
Time: 00:15:40
(UTC+00:00)
Language:

DMSP 5D-2 F13 DEB - Orbit

View from above orbital plane
View from above orbital plane
View from above satellite
View from above satellite

Ground track
Ground track

The orbit data is extracted from the following two-line orbital elements,

1 40461U 95015BD  23335.28952429  .00117127  00000-0  15873-1 0  9996
2 40461  98.7927 101.8842 0030964 257.9337 101.8400 14.77931024458088
Epoch (UTC): 01 December 2023 06:56:54
Eccentricity: 0.0030964
inclination: 98.7927°
perigee height: 614 km
apogee height: 657 km
right ascension of ascending node: 101.8842°
argument of perigee: 257.9337°
revolutions per day: 14.77931024
mean anomaly at epoch: 101.8400°
orbit number at epoch: 45808

The dashed part of the orbit path shows where the satellite is in the earth's shadow,  

DLR